Location: Newark
(59.4564°N, 26.6917°E)
Time: 15:17:17
(UTC+00:00)

Vanguard 3 - Visible Passes

Search period start: 22 November 2019 00:00
Search period end: 02 December 2019 00:00
Orbit: 507 x 3263 km, 33.4° (Epoch: 21 November)

Date Brightness Start Highest point End Pass type
(mag) Time Alt. Az. Time Alt. Az. Time Alt. Az.
22 Nov 11.1 15:27:25 10° WSW 15:39:26 21° SSW 15:49:16 10° SSE visible
23 Nov 11.2 14:10:50 10° WSW 14:24:54 26° SSW 14:36:46 10° SSE visible
23 Nov 11.3 16:27:40 10° WSW 16:35:58 15° SW 16:43:07 10° SSW visible
24 Nov 11.3 15:09:38 10° WSW 15:21:52 21° SSW 15:32:15 10° SSE visible
25 Nov 11.5 16:10:11 10° WSW 16:18:22 15° SW 16:25:40 10° SSW visible
26 Nov 11.5 14:52:01 10° WSW 15:04:12 21° SSW 15:14:58 10° S visible
27 Nov 11.7 15:52:59 10° WSW 16:00:43 14° SW 16:07:48 10° SSW visible
28 Nov 11.7 14:34:38 10° WSW 14:46:28 20° SSW 14:57:25 10° S visible
29 Nov 11.9 15:36:13 10° WSW 15:42:59 13° SW 15:49:24 10° SSW visible
30 Nov 11.9 14:17:30 10° WSW 14:28:43 19° SSW 14:39:31 10° S visible
01 Dec 12.0 15:20:11 10° WSW 15:25:13 11° SW 15:30:09 10° SSW visible
